Location: *
(40.9167°N, 9.5000°E)
Time: 20:10:15
(UTC+00:00)

SL-8 Rocket - Pass Details

Date: 09 April 2020
Orbit: 957 x 991 km, 82.9° (Epoch: 31 May)

Event Time Altitude Azimuth Distance (km) Brightness Sun altitude
Rises 19:23:29 0° 358° (N) 3,709 7.4 -16.5°
Reaches altitude 10° 19:26:08 10° 4° (N) 2,758 6.7 -16.9°
Maximum altitude 19:32:13 48° 78° (ENE) 1,279 4.3 -17.9°
Enters shadow 19:35:11 29° 135° (SE) 1,746 4.8 -18.4°
